"2016-01-01 00:00:00",1245531,5.173,188.9,6.166,1.102,-0.481,96.94492,-8.48,-7.118,65.41,0,109.2,13.52,-7.76,150.9
"2016-01-01 00:00:30",1245532,5.025,188.3,6.322,1.196,-1.007,96.94292,-8.48,-7.133,65.73,0,109.2,13.51,-7.76,150.3
"2016-01-01 00:01:00",1245533,5.18,188.2,5.994,1.119,-1.054,96.93896,-8.49,-7.122,65.92,0,109.2,13.52,-7.77,150.2
"2016-01-01 00:01:30",1245534,5.006,187.8,5.961,1.195,-1.074,96.93726,-8.5,-7.146,65.87,0,109.1,13.51,-7.78,149.8
"2016-01-01 00:02:00",1245535,5.06,187.5,6.185,1.166,-1.14,96.93668,-8.5,-7.138,65.85,0,109.2,13.52,-7.78,149.5
"2016-01-01 00:02:30",1245536,5.156,188.2,5.966,1.157,-1.168,96.93724,-8.5,-7.115,65.94,0,109.2,13.52,-7.78,150.2
"2016-01-01 00:03:00",1245537,5.005,187.7,6.172,1.199,-1.698,96.93751,-8.5,-7.167,65.8,0,109.2,13.51,-7.78,149.7
"2016-01-01 00:03:30",1245538,3.925,182.1,5.868,1.165,-4.106,96.93888,-8.49,-7.312,65.55,0,109.2,13.51,-7.77,144.1
"2016-01-01 00:04:00",1245539,3.729,182.4,5.103,0.972,-4.061,96.94164,-8.49,-7.337,65.38,0,109.2,13.51,-7.77,144.4
"2016-01-01 00:04:30",1245540,4.456,187,6.493,1.287,-2.436,96.94907,-8.47,-7.23,65.09,0,109.2,13.52,-7.75,149.0
"2016-01-01 00:05:00",1245541,5.049,190.9,6.369,1.21,-0.56,96.95649,-8.45,-7.146,64.52,0,109.2,13.52,-7.73,152.9
"2016-01-01 00:05:30",1245542,5.028,190.7,6.41,1.221,0.091,96.95896,-8.44,-7.152,63.86,0,109.1,13.52,-7.72,152.7
"2016-01-01 00:06:00",1245543,4.897,190.6,6.141,1.21,0.18,96.96061,-8.44,-7.145,63.3,0,109.1,13.51,-7.72,152.6
"2016-01-01 00:06:30",1245544,4.92,191.7,6.035,1.187,-0.157,96.96089,-8.44,-7.138,62.8,0,109.1,13.52,-7.72,153.7
"2016-01-01 00:07:00",1245545,4.813,191.5,6.228,1.174,-0.511,96.96143,-8.44,-7.173,62.45,0,109.1,13.52,-7.71,153.5
"2016-01-01 00:07:30",1245546,4.787,192,5.983,1.102,-0.807,96.96116,-8.44,-7.153,62.22,0,109.1,13.52,-7.72,154.0
"2016-01-01 00:08:00",1245547,4.495,191.7,6.292,1.235,-0.895,96.96171,-8.44,-7.187,62.15,0,109.1,13.52,-7.71,153.7
"2016-01-01 00:08:30",1245548,4.791,190.7,6.451,1.131,-0.899,96.96028,-8.44,-7.174,62.19,0,109.1,13.52,-7.72,152.7
"2016-01-01 00:09:00",1245549,4.339,189.3,6.753,1.301,-1.651,96.9614,-8.44,-7.161,62.36,0,109.1,13.52,-7.71,151.3
"2016-01-01 00:09:30",1245550,2.663,182.1,0.502,0.052,-4.746,96.96076,-8.44,-7.422,62.03,0,109.1,13.57,-7.72,144.1
"2016-01-01 00:10:00",1245551,3.378,185.4,5.61,1.147,-3.4,96.95309,-8.46,-7.311,61.81,0,109.1,13.53,-7.74,147.4
"2016-01-01 00:10:30",1245552,4.499,191.6,6.181,1.197,-0.455,96.94996,-8.47,-7.138,61.64,0,109.1,13.53,-7.74,153.6
"2016-01-01 00:11:00",1245553,4.467,193.8,5.88,1.212,0.07,96.95268,-8.46,-7.165,61.26,0,109.1,13.53,-7.74,155.8
"2016-01-01 00:11:30",1245554,4.528,193.6,6.292,1.169,0.178,96.95239,-8.46,-7.163,61.01,0,109.1,13.53,-7.74,155.6
"2016-01-01 00:12:00",1245555,4.404,193.3,6.385,1.203,-0.124,96.9521,-8.46,-7.164,60.83,0,109.1,13.53,-7.74,155.3
"2016-01-01 00:12:30",1245556,4.496,193.2,6.032,1.2,-0.167,96.95183,-8.46,-7.193,60.71,0,109.1,13.53,-7.74,155.2
"2016-01-01 00:13:00",1245557,4.434,193.1,5.997,1.193,-0.233,96.95154,-8.46,-7.176,60.73,0,109.1,13.53,-7.74,155.1
"2016-01-01 00:13:30",1245558,4.266,193.3,6.422,1.232,-0.781,96.94785,-8.47,-7.206,60.74,0,109.1,13.53,-7.75,155.3
"2016-01-01 00:14:00",1245559,3.017,188.4,5.328,0.984,-3.228,96.94756,-8.47,-7.319,60.75,0,109.1,13.53,-7.75,150.4
"2016-01-01 00:14:30",1245560,3.093,189,5.349,1.045,-3.551,96.94444,-8.48,-7.388,60.77,0,109.1,13.53,-7.76,151.0
"2016-01-01 00:15:00",1245561,3.534,192,6.703,1.258,-1.969,96.94387,-8.48,-7.261,60.97,0,109.1,13.53,-7.76,154.0
"2016-01-01 00:15:30",1245562,4.426,197.5,5.993,1.178,0.016,96.94246,-8.49,-7.168,61.05,0,109.1,13.54,-7.76,159.5
"2016-01-01 00:16:00",1245563,4.541,196.7,6.477,1.121,0.358,96.9399,-8.49,-7.18,61.04,0,109.1,13.54,-7.77,158.7
"2016-01-01 00:16:30",1245564,4.367,198.3,6.198,1.206,-0.028,96.93706,-8.5,-7.153,60.98,0,109.1,13.54,-7.78,160.3
"2016-01-01 00:17:00",1245565,4.491,198.5,5.959,1.165,-0.031,96.93593,-8.5,-7.166,60.94,0,109.1,13.54,-7.78,160.5
"2016-01-01 00:17:30",1245566,4.364,198.3,6.234,1.192,-0.161,96.93565,-8.5,-7.18,60.93,0,109.1,13.54,-7.78,160.3
"2016-01-01 00:18:00",1245567,4.46,198.2,5.906,1.164,-0.381,96.93565,-8.5,-7.157,60.92,0,109.1,13.54,-7.78,160.2
"2016-01-01 00:18:30",1245568,4.237,197,6.499,1.229,-0.69,96.93565,-8.5,-7.194,60.97,0,109.1,13.53,-7.78,159.0
"2016-01-01 00:19:00",1245569,3.205,192.5,6.401,1.164,-2.98,96.93565,-8.5,-7.294,61.07,0,109.1,13.54,-7.78,154.5
"2016-01-01 00:19:30",1245570,2.905,190.5,5.766,0.964,-3.371,96.93592,-8.5,-7.325,61.38,0,109.1,13.54,-7.78,152.5
"2016-01-01 00:20:00",1245571,3.458,193.1,6.038,1.299,-1.953,96.93647,-8.5,-7.242,61.82,0,109.1,13.53,-7.78,155.1
"2016-01-01 00:20:30",1245572,4.022,197.4,6.258,1.23,0.216,96.93757,-8.5,-7.151,62.21,0,109.1,13.53,-7.78,159.4
"2016-01-01 00:21:00",1245573,4.178,199.2,5.759,1.181,0.611,96.93894,-8.49,-7.158,62.44,0,109.1,13.54,-7.77,161.2
"2016-01-01 00:21:30",1245574,4.192,198.2,6.431,1.119,0.049,96.94087,-8.49,-7.159,62.46,0,109.1,13.53,-7.77,160.2
"2016-01-01 00:22:00",1245575,3.936,198.4,6.375,1.209,-0.282,96.94278,-8.48,-7.165,62.4,0,109.1,13.53,-7.76,160.4
"2016-01-01 00:22:30",1245576,3.751,198,6.472,1.267,-0.699,96.94216,-8.49,-7.206,62.25,0,109.1,13.53,-7.76,160.0
"2016-01-01 00:23:00",1245577,2.878,193.4,5.69,1.178,-2.894,96.94482,-8.48,-7.322,62,0,109.1,13.53,-7.76,155.4
"2016-01-01 00:23:30",1245578,3.067,195.4,6.424,1.235,-2.835,96.93904,-8.49,-7.32,61.94,0,109.1,13.54,-7.77,157.4
"2016-01-01 00:24:00",1245579,3.541,198.6,6.683,1.305,-1.768,96.9384,-8.5,-7.253,62.01,0,109.1,13.54,-7.77,160.6
"2016-01-01 00:24:30",1245580,4.32,202.6,6.306,1.125,-0.079,96.93948,-8.49,-7.174,62.14,0,109.1,13.54,-7.77,164.6
"2016-01-01 00:25:00",1245581,4.315,202.6,6.102,1.205,-0.037,96.93887,-8.49,-7.151,62.34,0,109.1,13.54,-7.77,164.6
"2016-01-01 00:25:30",1245582,4.508,202.3,6.229,1.12,-0.17,96.93516,-8.5,-7.184,62.54,0,109.1,13.55,-7.78,164.3
"2016-01-01 00:26:00",1245583,4.271,202,6.207,1.208,0.032,96.93346,-8.51,-7.185,62.86,0,109.1,13.55,-7.79,164.0
"2016-01-01 00:26:30",1245584,4.166,200.6,6.414,1.222,-0.26,96.93345,-8.51,-7.181,63.15,0,109.1,13.55,-7.79,162.6
"2016-01-01 00:27:00",1245585,4.308,199.8,6.242,1.218,-0.584,96.93202,-8.51,-7.18,63.39,0,109.1,13.55,-7.79,161.8
"2016-01-01 00:27:30",1245586,3.716,198.8,6.422,1.31,-1.717,96.92946,-8.52,-7.24,63.66,0,109.1,13.55,-7.80,160.8
"2016-01-01 00:28:00",1245587,2.388,195.4,2.217,0.492,-4.384,96.92746,-8.52,-7.436,63.72,0,109.1,13.55,-7.80,157.4
"2016-01-01 00:28:30",1245588,3.574,203,6.666,1.327,-1.846,96.92663,-8.53,-7.275,63.96,0,109.2,13.55,-7.80,165.0
"2016-01-01 00:29:00",1245589,3.739,203.9,6.79,1.275,-1.062,96.9269,-8.52,-7.218,63.97,0,109.1,13.55,-7.80,165.9
"2016-01-01 00:29:30",1245590,4.042,206.3,5.79,1.214,0.341,96.928,-8.52,-7.167,63.81,0,109.1,13.55,-7.80,168.3
"2016-01-01 00:30:00",1245591,4.144,207.6,5.794,1.11,0.054,96.928,-8.52,-7.155,63.65,0,109.1,13.55,-7.80,169.6
"2016-01-01 00:30:30",1245592,3.95,206.8,6.059,1.208,-0.55,96.92828,-8.52,-7.208,63.51,0,109.1,13.55,-7.80,168.8
"2016-01-01 00:31:00",1245593,4.052,207.2,6.351,1.107,-0.75,96.93076,-8.51,-7.214,63.35,0,109.1,13.55,-7.79,169.2
"2016-01-01 00:31:30",1245594,3.21,204.1,6.693,1.286,-1.891,96.93157,-8.51,-7.286,63.17,0,109.1,13.55,-7.79,166.1
"2016-01-01 00:32:00",1245595,1.991,197.3,0.403,0.025,-4.606,96.93295,-8.51,-7.455,62.92,0,109.1,13.6,-7.79,159.3
"2016-01-01 00:32:30",1245596,3.162,201.5,6.932,1.307,-2.396,96.93293,-8.51,-7.345,62.95,0,109.1,13.55,-7.79,163.5
"2016-01-01 00:33:00",1245597,3.618,205.3,6.689,1.264,-0.528,96.92899,-8.52,-7.216,63.06,0,109.1,13.56,-7.80,167.3
"2016-01-01 00:33:30",1245598,3.86,206.2,6.147,1.173,-0.234,96.92496,-8.53,-7.211,63.07,0,109.1,13.56,-7.81,168.2
"2016-01-01 00:34:00",1245599,3.724,206.2,6.463,1.151,0.139,96.91645,-8.55,-7.222,63.13,0,109.1,13.56,-7.83,168.2
"2016-01-01 00:34:30",1245600,3.473,206.5,6.369,1.262,-0.659,96.91361,-8.56,-7.237,63.14,0,109.1,13.55,-7.84,168.5
"2016-01-01 00:35:00",1245601,2.958,205.5,6.658,1.28,-1.636,96.91387,-8.56,-7.301,63.12,0,109.1,13.56,-7.84,167.5
"2016-01-01 00:35:30",1245602,1.99,201.3,3.909,0.555,-3.869,96.91076,-8.57,-7.402,63.05,0,109.1,13.56,-7.84,163.3
"2016-01-01 00:36:00",1245603,3.166,207.9,6.951,1.336,-2.137,96.90707,-8.58,-7.369,63.11,0,109.1,13.56,-7.85,169.9
"2016-01-01 00:36:30",1245604,3.236,210.8,7.195,1.307,-1.514,96.9065,-8.58,-7.26,63.32,0,109.1,13.56,-7.85,172.8
"2016-01-01 00:37:00",1245605,3.414,213.5,6.471,1.226,-0.481,96.90593,-8.58,-7.263,63.42,0,109.1,13.55,-7.86,175.5
"2016-01-01 00:37:30",1245606,3.446,214.5,6.104,1.266,-0.805,96.90479,-8.58,-7.264,63.46,0,109.1,13.55,-7.86,176.5
"2016-01-01 00:38:00",1245607,2.949,214.1,6.83,1.278,-1.611,96.90452,-8.58,-7.253,63.58,0,109.1,13.55,-7.86,176.1
"2016-01-01 00:38:30",1245608,2.798,213.5,6.346,1.291,-2.031,96.90111,-8.59,-7.302,63.61,0,109.1,13.55,-7.87,175.5
"2016-01-01 00:39:00",1245609,3.126,216.6,6.608,1.301,-1.896,96.90054,-8.59,-7.392,63.58,0,109.1,13.55,-7.87,178.6
"2016-01-01 00:39:30",1245610,2.961,218.3,7.096,1.284,-2.005,96.90054,-8.59,-7.325,63.7,0,109.1,13.55,-7.87,180.3
"2016-01-01 00:40:00",1245611,3.351,224.3,6.722,1.296,-1.208,96.90054,-8.59,-7.295,63.86,0,109.1,13.55,-7.87,186.3
"2016-01-01 00:40:30",1245612,3.377,225.7,6.582,1.297,-0.988,96.90054,-8.59,-7.279,64.07,0,109.1,13.55,-7.87,187.7
"2016-01-01 00:41:00",1245613,3.46,231.3,6.482,1.275,-0.362,96.90054,-8.59,-7.269,64.28,0,109.1,13.55,-7.87,193.3
"2016-01-01 00:41:30",1245614,3.216,232.6,6.642,1.282,-0.68,96.90054,-8.59,-7.247,64.5,0,109.1,13.55,-7.87,194.6
"2016-01-01 00:42:00",1245615,2.919,230.7,5.742,1.354,-1.996,96.89969,-8.59,-7.379,64.4,0,109.1,13.56,-7.87,192.7
"2016-01-01 00:42:30",1245616,1.652,226.3,1.712,0.074,-4.218,96.89798,-8.6,-7.446,64.34,0,109.1,13.6,-7.88,188.3
"2016-01-01 00:43:00",1245617,3.415,233.6,7.56,1.257,-1.071,96.89288,-8.61,-7.315,64.41,0,109.1,13.56,-7.89,195.6
"2016-01-01 00:43:30",1245618,3.211,240.6,6.891,1.247,-0.5,96.88863,-8.62,-7.301,64.42,0,109.1,13.56,-7.90,202.6
"2016-01-01 00:44:00",1245619,3.584,235.7,7.479,1.177,-0.341,96.88266,-8.64,-7.269,64.38,0,109.1,13.56,-7.92,197.7
"2016-01-01 00:44:30",1245620,3.529,245.1,6.374,1.173,-0.416,96.88039,-8.64,-7.337,64.26,0,109.1,13.56,-7.92,207.1
"2016-01-01 00:45:00",1245621,2.398,243.6,8.03,1.202,-2.539,96.87868,-8.65,-7.369,64.15,0,109.1,13.56,-7.93,205.6
"2016-01-01 00:45:30",1245622,1.874,235.2,11.86,0.985,-3.247,96.87642,-8.65,-7.409,64.02,0,109.1,13.56,-7.93,197.2
"2016-01-01 00:46:00",1245623,2.884,242.6,8.02,1.328,-2.189,96.87642,-8.65,-7.372,64.01,0,109.1,13.56,-7.93,204.6
"2016-01-01 00:46:30",1245624,2.937,244.4,8.26,1.246,-1.058,96.87556,-8.66,-7.329,64.05,0,109.1,13.56,-7.93,206.4
"2016-01-01 00:47:00",1245625,2.999,240.5,6.727,1.307,-0.803,96.87527,-8.66,-7.325,64.02,0,109.1,13.56,-7.93,202.5
"2016-01-01 00:47:30",1245626,3.379,237.6,8.62,1.272,-0.544,96.87443,-8.66,-7.296,64.03,0,109.1,13.56,-7.94,199.6
"2016-01-01 00:48:00",1245627,2.667,244.6,7.725,1.25,-2.659,96.875,-8.66,-7.422,63.9,0,109.1,13.56,-7.94,206.6
"2016-01-01 00:48:30",1245628,2.476,240.6,7.858,1.208,-2.957,96.87415,-8.66,-7.428,63.85,0,109.1,13.56,-7.94,202.6
"2016-01-01 00:49:00",1245629,3.206,222.7,7.067,1.334,-1.461,96.87727,-8.65,-7.334,63.9,0,109.1,13.56,-7.93,184.7
"2016-01-01 00:49:30",1245630,2.943,226.8,8.63,1.265,-1.188,96.89655,-8.6,-7.313,63.83,0,109.1,13.57,-7.88,188.8
"2016-01-01 00:50:00",1245631,2.822,233.7,7.168,1.257,-0.819,96.89771,-8.6,-7.3,63.82,0,109.1,13.57,-7.88,195.7
"2016-01-01 00:50:30",1245632,2.43,227,6.725,1.204,-1.861,96.89598,-8.6,-7.324,63.83,0,109.1,13.57,-7.88,189.0
"2016-01-01 00:51:00",1245633,2.853,222.8,9.2,1.247,-2.197,96.89627,-8.6,-7.408,63.84,0,109.1,13.56,-7.88,184.8
"2016-01-01 00:51:30",1245634,3.041,233.9,7.166,1.293,-2.174,96.89625,-8.6,-7.401,63.89,0,109.1,13.57,-7.88,195.9
"2016-01-01 00:52:00",1245635,3.224,235.4,7.341,1.333,-1.244,96.9002,-8.59,-7.334,64,0,109.1,13.57,-7.87,197.4
"2016-01-01 00:52:30",1245636,3.508,231,9.75,1.182,-0.625,96.90069,-8.59,-7.282,64.01,0,109.1,13.57,-7.87,193.0
"2016-01-01 00:53:00",1245637,3.609,220.5,6.775,1.353,-1.203,96.90437,-8.58,-7.316,63.97,0,109.1,13.57,-7.86,182.5
"2016-01-01 00:53:30",1245638,3.754,226.1,9.07,1.182,-1.374,96.9088,-8.57,-7.311,64.27,0,109.1,13.57,-7.85,188.1
"2016-01-01 00:54:00",1245639,3.797,231.8,7.258,1.336,-1.93,96.90934,-8.57,-7.321,64.35,0,109.1,13.56,-7.85,193.8
"2016-01-01 00:54:30",1245640,3.305,237.6,10.21,1.237,-1.894,96.9132,-8.56,-7.341,64.31,0,109.1,13.56,-7.84,199.6
"2016-01-01 00:55:00",1245641,3.353,224.1,16.18,1.398,-0.396,96.9132,-8.56,-7.252,64.36,0,109.1,13.56,-7.84,186.1
"2016-01-01 00:55:30",1245642,3.588,221.3,7.941,1.247,-0.38,96.91516,-8.55,-7.262,64.33,0,109.1,13.56,-7.83,183.3
"2016-01-01 00:56:00",1245643,3.573,228.4,6.561,1.271,-0.841,96.91737,-8.55,-7.271,64.22,0,109.1,13.56,-7.83,190.4
"2016-01-01 00:56:30",1245644,2.951,218.2,8.26,1.236,-2.446,96.9182,-8.55,-7.388,63.9,0,109.1,13.56,-7.82,180.2
"2016-01-01 00:57:00",1245645,3.056,230.6,8.88,1.142,-2.12,96.91931,-8.54,-7.297,63.81,0,109.1,13.56,-7.82,192.6
"2016-01-01 00:57:30",1245646,2.771,235.8,7.568,1.266,-1.963,96.91983,-8.54,-7.334,63.65,0,109.1,13.56,-7.82,197.8
"2016-01-01 00:58:00",1245647,3.246,235.9,9.5,1.34,-0.751,96.92262,-8.54,-7.284,63.63,0,109.1,13.56,-7.81,197.9
"2016-01-01 00:58:30",1245648,3.37,215,9.71,1.245,-0.661,96.92455,-8.53,-7.286,63.52,0,109.1,13.56,-7.81,177.0
"2016-01-01 00:59:00",1245649,3.847,214.4,7.237,1.312,-1.248,96.92678,-8.52,-7.264,63.48,0,109.1,13.56,-7.80,176.4
"2016-01-01 00:59:30",1245650,3.467,216.9,8.42,1.459,-1.821,96.9279,-8.52,-7.268,63.48,0,109.1,13.57,-7.80,178.9
"2016-01-01 01:00:00",1245651,3.713,223.5,10.66,1.271,-2.227,96.92818,-8.52,-7.363,63.42,0,109.1,13.57,-7.80,185.5
"2016-01-01 01:00:30",1245652,3.664,230.8,10.07,1.273,-1.201,96.92844,-8.52,-7.217,63.62,0,109.1,13.58,-7.80,192.8
"2016-01-01 01:01:00",1245653,4.083,232.1,7.785,1.267,-0.911,96.92985,-8.52,-7.243,63.52,0,109.1,13.57,-7.80,194.1
"2016-01-01 01:01:30",1245654,3.882,234.1,9.69,1.33,-0.243,96.92928,-8.52,-7.187,63.5,0,109.1,13.57,-7.80,196.1
"2016-01-01 01:02:00",1245655,2.859,229.9,10.01,1.288,-1.108,96.93098,-8.51,-7.233,63.39,0,109.1,13.57,-7.79,191.9
"2016-01-01 01:02:30",1245656,2.868,230.3,8.61,1.39,-1.904,96.93013,-8.52,-7.335,63.17,0,109.1,13.57,-7.79,192.3
"2016-01-01 01:03:00",1245657,2.394,229.6,5.631,1.188,-2.929,96.92872,-8.52,-7.367,63.06,0,109.1,13.57,-7.80,191.6
"2016-01-01 01:03:30",1245658,3.258,225.4,6.596,1.325,-1.703,96.93069,-8.51,-7.221,63.14,0,109.1,13.58,-7.79,187.4
"2016-01-01 01:04:00",1245659,3.592,231.8,6.591,1.325,-0.612,96.93155,-8.51,-7.211,62.95,0,109.1,13.58,-7.79,193.8
"2016-01-01 01:04:30",1245660,3.249,234.1,7.563,1.264,-0.328,96.93069,-8.51,-7.249,62.69,0,109.1,13.58,-7.79,196.1
"2016-01-01 01:05:00",1245661,3.314,236.1,9.52,1.314,-0.734,96.93041,-8.52,-7.188,62.63,0,109.1,13.58,-7.79,198.1
"2016-01-01 01:05:30",1245662,2.453,241.6,4.88,1.319,-2.233,96.93041,-8.52,-7.326,62.37,0,109.1,13.57,-7.79,203.6
"2016-01-01 01:06:00",1245663,2.264,244.7,6.552,1.212,-2.741,96.92957,-8.52,-7.332,62.31,0,109.1,13.58,-7.80,206.7
"2016-01-01 01:06:30",1245664,2.572,242.2,5.773,1.436,-1.532,96.93211,-8.51,-7.265,62.34,0,109.1,13.58,-7.79,204.2
"2016-01-01 01:07:00",1245665,3.485,230.7,8.36,1.263,-0.943,96.93155,-8.51,-7.189,62.36,0,109.1,13.58,-7.79,192.7
"2016-01-01 01:07:30",1245666,3.333,230.4,8.69,1.32,-1.418,96.93098,-8.51,-7.279,62.21,0,109.1,13.58,-7.79,192.4
"2016-01-01 01:08:00",1245667,3.387,241.9,7.776,1.297,-0.658,96.93154,-8.51,-7.222,62.16,0,109.1,13.58,-7.79,203.9
"2016-01-01 01:08:30",1245668,2.803,231.8,5.943,1.308,-2.094,96.93238,-8.51,-7.289,62,0,109.1,13.58,-7.79,193.8
"2016-01-01 01:09:00",1245669,3.016,236.7,7.197,1.361,-1.902,96.9324,-8.51,-7.241,61.99,0,109.1,13.58,-7.79,198.7
"2016-01-01 01:09:30",1245670,3.207,223.2,7.549,1.327,-1.384,96.93466,-8.5,-7.269,61.82,0,109.1,13.58,-7.78,185.2
"2016-01-01 01:10:00",1245671,2.806,228.8,7.154,1.199,-1.761,96.93267,-8.51,-7.261,61.75,0,109.1,13.58,-7.79,190.8
"2016-01-01 01:10:30",1245672,3.519,236.8,8.65,1.251,-0.456,96.93465,-8.5,-7.168,61.69,0,109.1,13.57,-7.78,198.8
"2016-01-01 01:11:00",1245673,3.17,232.8,9.88,1.304,-1.608,96.93491,-8.5,-7.249,61.5,0,109.1,13.57,-7.78,194.8
"2016-01-01 01:11:30",1245674,3.29,230.1,6.821,1.336,-1.348,96.93324,-8.51,-7.221,61.42,0,109.1,13.57,-7.79,192.1
"2016-01-01 01:12:00",1245675,2.623,243.6,7.356,1.321,-2.16,96.93576,-8.5,-7.248,61.32,0,109.1,13.57,-7.78,205.6
"2016-01-01 01:12:30",1245676,3.154,257.1,9.42,1.301,-0.947,96.93911,-8.49,-7.24,61.3,0,109.1,13.57,-7.77,219.1
"2016-01-01 01:13:00",1245677,2.007,230.1,8.05,1.202,-2.474,96.93913,-8.49,-7.264,61.27,0,109.1,13.58,-7.77,192.1
"2016-01-01 01:13:30",1245678,2.689,232.5,8.18,1.244,-1.437,96.94247,-8.49,-7.242,61.24,0,109.1,13.57,-7.76,194.5
"2016-01-01 01:14:00",1245679,2.91,224.2,8.26,1.347,-1.59,96.94196,-8.49,-7.224,61.12,0,109.1,13.57,-7.76,186.2
"2016-01-01 01:14:30",1245680,2.835,225.9,6.437,1.299,-1.546,96.94331,-8.48,-7.235,61.03,0,109.1,13.57,-7.76,187.9
"2016-01-01 01:15:00",1245681,2.785,227.7,8.17,1.285,-1.955,96.94445,-8.48,-7.218,60.94,0,109.1,13.57,-7.76,189.7
"2016-01-01 01:15:30",1245682,2.748,233.9,8.21,1.233,-1.979,96.94329,-8.48,-7.249,60.82,0,109.1,13.58,-7.76,195.9
"2016-01-01 01:16:00",1245683,2.836,247.8,9.55,1.287,-0.949,96.94358,-8.48,-7.264,60.78,0,109.1,13.58,-7.76,209.8
"2016-01-01 01:16:30",1245684,3.196,249,8.01,1.318,-1.55,96.94328,-8.48,-7.252,60.72,0,109.1,13.58,-7.76,211.0
"2016-01-01 01:17:00",1245685,2.723,231.6,10.2,1.278,-2.26,96.94215,-8.49,-7.245,60.76,0,109.1,13.58,-7.76,193.6
"2016-01-01 01:17:30",1245686,2.91,228.7,10.64,1.179,-2.788,96.94579,-8.48,-7.297,60.78,0,109.1,13.58,-7.75,190.7
"2016-01-01 01:18:00",1245687,3.53,228.1,7.609,1.263,-1.075,96.94267,-8.48,-7.169,60.96,0,109.1,13.58,-7.76,190.1
"2016-01-01 01:18:30",1245688,3.355,226.6,6.675,1.282,-1.961,96.94549,-8.48,-7.225,61.04,0,109.1,13.58,-7.76,188.6
"2016-01-01 01:19:00",1245689,4.024,226.1,7.422,1.32,-0.986,96.94549,-8.48,-7.19,61.18,0,109.1,13.58,-7.76,188.1
"2016-01-01 01:19:30",1245690,3.598,224,6.291,1.3,-1.95,96.94721,-8.47,-7.19,61.36,0,109.1,13.58,-7.75,186.0
"2016-01-01 01:20:00",1245691,4.248,221.4,6.633,1.278,-1.235,96.94662,-8.47,-7.206,61.42,0,109.1,13.58,-7.75,183.4
"2016-01-01 01:20:30",1245692,4.068,217.5,7.34,1.306,-1.154,96.94919,-8.47,-7.156,61.3,0,109.1,13.58,-7.75,179.5
"2016-01-01 01:21:00",1245693,4.425,216.3,6.736,1.246,-0.681,96.94975,-8.47,-7.206,61.15,0,109.1,13.58,-7.74,178.3
"2016-01-01 01:21:30",1245694,4.595,216.2,6.664,1.25,-0.576,96.95145,-8.46,-7.158,61.1,0,109.1,13.58,-7.74,178.2
"2016-01-01 01:22:00",1245695,4.552,216.1,6.101,1.21,-0.135,96.95059,-8.46,-7.131,61.08,0,109.1,13.58,-7.74,178.1
"2016-01-01 01:22:30",1245696,4.6,215.1,5.738,1.17,-0.425,96.95088,-8.46,-7.133,61.05,0,109.1,13.58,-7.74,177.1
"2016-01-01 01:23:00",1245697,4.507,211.3,6.623,1.213,-0.599,96.95258,-8.46,-7.15,61.06,0,109.1,13.58,-7.74,173.3
"2016-01-01 01:23:30",1245698,4.554,208.4,5.901,1.155,-0.452,96.95628,-8.45,-7.129,61.08,0,109.1,13.58,-7.73,170.4
"2016-01-01 01:24:00",1245699,4.589,205.8,6.02,1.167,-0.661,96.95229,-8.46,-7.15,61.15,0,109.1,13.58,-7.74,167.8
"2016-01-01 01:24:30",1245700,4.52,204.1,6.215,1.195,-1.218,96.95116,-8.46,-7.114,61.25,0,109.1,13.58,-7.74,166.1
"2016-01-01 01:25:00",1245701,4.543,204.6,5.922,1.156,-1.317,96.95088,-8.46,-7.142,61.34,0,109.1,13.58,-7.74,166.6
"2016-01-01 01:25:30",1245702,4.545,203.2,6.255,1.115,-1.399,96.94889,-8.47,-7.146,61.44,0,109.1,13.58,-7.75,165.2
"2016-01-01 01:26:00",1245703,4.183,201.7,6.365,1.265,-1.827,96.94605,-8.48,-7.157,61.54,0,109.1,13.58,-7.75,163.7
"2016-01-01 01:26:30",1245704,2.936,196.8,4.739,0.966,-4.041,96.94747,-8.47,-7.332,61.5,0,109.1,13.58,-7.75,158.8
"2016-01-01 01:27:00",1245705,2.877,197.4,4.106,0.904,-4.47,96.94833,-8.47,-7.369,61.63,0,109.1,13.58,-7.75,159.4
"2016-01-01 01:27:30",1245706,4.191,204.3,6.479,1.256,-1.336,96.94577,-8.48,-7.166,61.93,0,109.1,13.58,-7.75,166.3
"2016-01-01 01:28:00",1245707,4.112,203.8,6.081,1.245,-0.951,96.94236,-8.49,-7.126,62.07,0,109.1,13.58,-7.76,165.8
"2016-01-01 01:28:30",1245708,4.272,202.6,5.994,1.168,-0.572,96.93867,-8.49,-7.126,62.24,0,109.1,13.58,-7.77,164.6
"2016-01-01 01:29:00",1245709,4.071,201.1,6.049,1.209,-0.335,96.93725,-8.5,-7.15,62.44,0,109,13.57,-7.78,163.1
"2016-01-01 01:29:30",1245710,3.888,198.8,6.306,1.229,-1.01,96.93782,-8.5,-7.172,62.69,0,109.1,13.57,-7.77,160.8
"2016-01-01 01:30:00",1245711,3.806,197.3,6.303,1.218,-0.795,96.93413,-8.51,-7.174,63.07,0,109.1,13.57,-7.78,159.3
"2016-01-01 01:30:30",1245712,3.388,193.2,7.095,1.296,-2.193,96.93356,-8.51,-7.334,63.27,0,109.1,13.57,-7.79,155.2
"2016-01-01 01:31:00",1245713,3.011,190.6,6.382,1.249,-2.328,96.93356,-8.51,-7.223,63.8,0,109.1,13.58,-7.79,152.6
"2016-01-01 01:31:30",1245714,3.546,192.5,6.842,1.306,-1.794,96.93129,-8.51,-7.26,64.14,0,109.1,13.57,-7.79,154.5
"2016-01-01 01:32:00",1245715,3.814,192.9,6.599,1.261,-1.152,96.91795,-8.55,-7.176,64.48,0,109.1,13.58,-7.83,154.9
"2016-01-01 01:32:30",1245716,3.771,191.8,6.469,1.289,-1.193,96.90829,-8.57,-7.226,64.65,0,109.1,13.58,-7.85,153.8
"2016-01-01 01:33:00",1245717,3.866,191.6,6.751,1.272,-0.97,96.90431,-8.58,-7.225,64.84,0,109.1,13.58,-7.86,153.6
"2016-01-01 01:33:30",1245718,4.087,194.2,6.018,1.166,-0.676,96.89977,-8.59,-7.195,65.03,0,109.1,13.58,-7.87,156.2
"2016-01-01 01:34:00",1245719,3.395,192.5,6.836,1.299,-1.652,96.89949,-8.59,-7.272,65.05,0,109.1,13.58,-7.87,154.5
"2016-01-01 01:34:30",1245720,2.724,190.4,6.081,1.108,-2.589,96.89949,-8.59,-7.324,65.07,0,109.1,13.58,-7.87,152.4
"2016-01-01 01:35:00",1245721,3.029,193.1,6.745,1.271,-2.276,96.89693,-8.6,-7.298,65.2,0,109.1,13.58,-7.88,155.1
"2016-01-01 01:35:30",1245722,3.507,197,6.42,1.295,-2.071,96.88302,-8.64,-7.334,65.29,0,109.1,13.59,-7.91,159.0
"2016-01-01 01:36:00",1245723,3.325,197.3,6.79,1.319,-2.005,96.88132,-8.64,-7.325,65.41,0,109.1,13.58,-7.92,159.3
"2016-01-01 01:36:30",1245724,3.554,198.4,6.497,1.265,-1.073,96.87364,-8.66,-7.278,65.57,0,109.1,13.59,-7.94,160.4
"2016-01-01 01:37:00",1245725,3.233,195.6,6.51,1.3,-1.748,96.86826,-8.67,-7.323,65.55,0,109.1,13.58,-7.95,157.6
"2016-01-01 01:37:30",1245726,3.754,197.8,6.081,1.159,-0.545,96.86541,-8.68,-7.324,65.65,0,109.1,13.59,-7.96,159.8
"2016-01-01 01:38:00",1245727,2.929,191.8,6.703,1.273,-2.615,96.86541,-8.68,-7.461,65.53,0,109.1,13.59,-7.96,153.8
"2016-01-01 01:38:30",1245728,2.91,191.3,6.17,1.244,-2.603,96.85775,-8.7,-7.371,65.67,0,109.1,13.59,-7.98,153.3
"2016-01-01 01:39:00",1245729,3.038,190.5,6.483,1.29,-2.145,96.84695,-8.73,-7.405,65.65,0,109.1,13.59,-8.01,152.5
"2016-01-01 01:39:30",1245730,3.308,192,6.748,1.299,-0.92,96.83873,-8.75,-7.391,65.64,0,109,13.59,-8.03,154.0
"2016-01-01 01:40:00",1245731,3.562,192.2,6.768,1.265,-0.736,96.83305,-8.76,-7.371,65.65,0,109.1,13.59,-8.04,154.2
"2016-01-01 01:40:30",1245732,3.457,191.6,6.54,1.257,-0.976,96.83134,-8.77,-7.41,65.63,0,109.1,13.59,-8.05,153.6
"2016-01-01 01:41:00",1245733,2.718,187.2,6.456,1.179,-2.722,96.83077,-8.77,-7.461,65.57,0,109.1,13.59,-8.05,149.2
"2016-01-01 01:41:30",1245734,2.627,185.7,6.16,1.246,-3.245,96.82055,-8.8,-7.517,65.53,0,109.1,13.59,-8.07,147.7
"2016-01-01 01:42:00",1245735,2.729,186.2,6.698,1.239,-2.336,96.81374,-8.81,-7.504,65.67,0,109.1,13.59,-8.09,148.2
"2016-01-01 01:42:30",1245736,2.782,183.8,7.038,1.328,-1.979,96.80636,-8.83,-7.563,65.84,0,109.1,13.59,-8.11,145.8
"2016-01-01 01:43:00",1245737,2.785,180.5,6.7,1.318,-1.338,96.80351,-8.84,-7.459,66.22,0,109.1,13.59,-8.12,142.5
"2016-01-01 01:43:30",1245738,2.95,180.5,6.607,1.263,-1.179,96.79726,-8.85,-7.486,66.64,0,109.1,13.59,-8.13,142.5
"2016-01-01 01:44:00",1245739,2.486,179.7,7.236,1.29,-3.32,96.79726,-8.85,-7.609,66.95,0,109.1,13.59,-8.13,141.7
"2016-01-01 01:44:30",1245740,2.665,183.9,6.351,1.282,-3.24,96.79357,-8.86,-7.525,67.48,0,109.1,13.59,-8.14,145.9
"2016-01-01 01:45:00",1245741,3.057,185,6.872,1.26,-2.55,96.77739,-8.9,-7.58,67.71,0,109.1,13.58,-8.18,147.0